| time (UTC) | temp F | wind direction | speed MPH | gust MPH | rain 1hr in | rain 24hr in | rain mn in | humidity % | barometer mb |
| 20260507044831 | 48 | 290 | 3.0 | 9.0 | 0.00 | 0.08 | 0.00 | 87 | 1012.5 |
| 20260507044330 | 48 | 258 | 4.0 | 8.0 | 0.00 | 0.08 | 0.00 | 87 | 1012.4 |
| 20260507043830 | 48 | 270 | 4.0 | 9.0 | 0.00 | 0.08 | 0.00 | 87 | 1012.4 |
| 20260507043329 | 48 | 254 | 5.0 | 9.0 | 0.00 | 0.08 | 0.00 | 87 | 1012.4 |
| 20260507042832 | 48 | 259 | 3.0 | 8.0 | 0.00 | 0.08 | 0.00 | 87 | 1012.4 |
| 20260507042329 | 47 | 225 | 3.0 | 8.0 | 0.00 | 0.08 | 0.00 | 88 | 1012.4 |
| 20260507041828 | 47 | 275 | 2.0 | 6.0 | 0.00 | 0.08 | 0.00 | 88 | 1012.2 |
| 20260507041329 | 47 | 217 | 2.0 | 6.0 | 0.00 | 0.08 | 0.00 | 88 | 1012.2 |
| 20260507040829 | 47 | 278 | 3.0 | 6.0 | 0.00 | 0.08 | 0.00 | 89 | 1012.1 |
| 20260507040331 | 47 | 265 | 2.0 | 5.0 | 0.00 | 0.08 | 0.00 | 89 | 1012.2 |
| 20260507035330 | 47 | 225 | 2.0 | 7.0 | 0.00 | 0.08 | 0.00 | 89 | 1012.2 |
| 20260507034829 | 47 | 279 | 1.0 | 4.0 | 0.00 | 0.08 | 0.00 | 89 | 1012.1 |
| 20260507034331 | 47 | 257 | 1.0 | 6.0 | 0.00 | 0.08 | 0.00 | 89 | 1012.0 |
| 20260507033831 | 47 | 269 | 1.0 | 6.0 | 0.00 | 0.08 | 0.00 | 89 | 1012.0 |
| 20260507031828 | 46 | 260 | 4.0 | 8.0 | 0.00 | 0.08 | 0.00 | 90 | 1011.9 |
| 20260507031330 | 46 | 254 | 3.0 | 8.0 | 0.00 | 0.08 | 0.00 | 91 | 1011.9 |
| 20260507030829 | 46 | 275 | 1.0 | 8.0 | 0.00 | 0.08 | 0.00 | 91 | 1012.0 |
| 20260507030329 | 46 | 259 | 3.0 | 8.0 | 0.00 | 0.08 | 0.00 | 92 | 1011.9 |
| 20260507025829 | 45 | 329 | 1.0 | 6.0 | 0.00 | 0.08 | 0.00 | 92 | 1011.9 |
| 20260507025329 | 45 | 263 | 2.0 | 6.0 | 0.00 | 0.08 | 0.00 | 92 | 1011.9 |
| 20260507024828 | 45 | 275 | 2.0 | 6.0 | 0.00 | 0.08 | 0.00 | 92 | 1011.9 |
| 20260507023829 | 45 | 269 | 2.0 | 5.0 | 0.00 | 0.08 | 0.00 | 92 | 1011.9 |
| 20260507023330 | 45 | 236 | 2.0 | 6.0 | 0.00 | 0.08 | 0.00 | 92 | 1011.7 |
| 20260507022828 | 45 | 264 | 2.0 | 6.0 | 0.00 | 0.08 | 0.00 | 92 | 1011.7 |
| 20260507022329 | 45 | 268 | 2.0 | 6.0 | 0.00 | 0.08 | 0.00 | 92 | 1011.8 |
| 20260507021828 | 45 | 279 | 1.0 | 4.0 | 0.00 | 0.08 | 0.00 | 91 | 1011.9 |
| 20260507021343 | 45 | 288 | 0.0 | 4.0 | 0.00 | 0.08 | 0.00 | 91 | 1011.9 |
| 20260507020830 | 45 | 232 | 1.0 | 3.0 | 0.00 | 0.08 | 0.00 | 91 | 1011.9 |
| 20260507020331 | 45 | 269 | 1.0 | 3.0 | 0.00 | 0.08 | 0.00 | 91 | 1011.8 |
| 20260507015832 | 45 | 249 | 0.0 | 2.0 | 0.00 | 0.08 | 0.00 | 91 | 1011.7 |
| 20260507014829 | 46 | 233 | 0.0 | 2.0 | 0.00 | 0.08 | 0.00 | 90 | 1011.8 |
| 20260507014329 | 46 | 268 | 0.0 | 3.0 | 0.00 | 0.08 | 0.00 | 90 | 1011.8 |
| 20260507013830 | 46 | 239 | 0.0 | 3.0 | 0.00 | 0.08 | 0.00 | 90 | 1011.7 |
| 20260507013328 | 46 | 227 | 0.0 | 6.0 | 0.00 | 0.08 | 0.00 | 90 | 1011.6 |
| 20260507012829 | 46 | 250 | 2.0 | 6.0 | 0.00 | 0.08 | 0.00 | 90 | 1011.6 |
| 20260507012328 | 46 | 225 | 1.0 | 4.0 | 0.00 | 0.08 | 0.00 | 89 | 1011.6 |
| 20260507011330 | 47 | 264 | 2.0 | 7.0 | 0.00 | 0.08 | 0.00 | 89 | 1011.6 |
| 20260507010330 | 47 | 271 | 1.0 | 3.0 | 0.00 | 0.08 | 0.00 | 89 | 1011.6 |
| 20260507005829 | 47 | 294 | 0.0 | 2.0 | 0.00 | 0.08 | 0.00 | 89 | 1011.7 |
| 20260507005330 | 47 | 269 | 0.0 | 9.0 | 0.00 | 0.08 | 0.00 | 89 | 1011.7 |
| 20260507004830 | 47 | 250 | 2.0 | 9.0 | 0.00 | 0.08 | 0.00 | 89 | 1011.7 |
| 20260507004329 | 47 | 258 | 3.0 | 7.0 | 0.00 | 0.08 | 0.00 | 89 | 1011.5 |
| 20260507003830 | 47 | 267 | 2.0 | 7.0 | 0.00 | 0.08 | 0.00 | 89 | 1011.5 |
| 20260507003330 | 47 | 263 | 2.0 | 7.0 | 0.00 | 0.08 | 0.00 | 89 | 1011.6 |
| 20260507002829 | 47 | 283 | 3.0 | 6.0 | 0.00 | 0.08 | 0.00 | 88 | 1011.5 |
| 20260507002328 | 47 | 271 | 2.0 | 7.0 | 0.00 | 0.08 | 0.00 | 88 | 1011.5 |
| 20260507001825 | 48 | 278 | 2.0 | 7.0 | 0.00 | 0.08 | 0.00 | 88 | 1011.5 |
| 20260507001319 | 48 | 261 | 2.0 | 6.0 | 0.00 | 0.08 | 0.00 | 88 | 1011.5 |
| 20260507000819 | 48 | 255 | 2.0 | 6.0 | 0.00 | 0.08 | 0.00 | 87 | 1011.5 |
| 20260507000317 | 48 | 247 | 2.0 | 7.0 | 0.00 | 0.08 | 0.00 | 87 | 1011.6 |
| 20260506235816 | 48 | 263 | 3.0 | 7.0 | 0.00 | 0.08 | 0.00 | 87 | 1011.6 |
| 20260506235315 | 48 | 236 | 2.0 | 4.0 | 0.00 | 0.08 | 0.00 | 87 | 1011.7 |
| 20260506234813 | 48 | 281 | 1.0 | 7.0 | 0.00 | 0.08 | 0.00 | 87 | 1011.7 |
| 20260506234313 | 48 | 270 | 3.0 | 7.0 | 0.00 | 0.08 | 0.00 | 87 | 1011.7 |
| 20260506233812 | 48 | 255 | 2.0 | 7.0 | 0.00 | 0.08 | 0.00 | 87 | 1011.7 |
| 20260506233306 | 48 | 273 | 0.0 | 6.0 | 0.00 | 0.08 | 0.00 | 87 | 1011.6 |
| 20260506232806 | 48 | 296 | 2.0 | 6.0 | 0.00 | 0.08 | 0.00 | 87 | 1011.7 |
| 20260506232306 | 48 | 296 | 2.0 | 6.0 | 0.00 | 0.08 | 0.00 | 87 | 1011.7 |
| 20260506231315 | 48 | 283 | 2.0 | 9.0 | 0.00 | 0.08 | 0.00 | 86 | 1011.6 |
| 20260506230803 | 49 | 266 | 4.0 | 9.0 | 0.00 | 0.08 | 0.00 | 86 | 1011.5 |
| 20260506230300 | 49 | 265 | 4.0 | 8.0 | 0.00 | 0.08 | 0.00 | 86 | 1011.5 |
| 20260506225758 | 49 | 276 | 3.0 | 8.0 | 0.00 | 0.08 | 0.00 | 86 | 1011.5 |
| 20260506225251 | 49 | 288 | 3.0 | 8.0 | 0.00 | 0.08 | 0.00 | 86 | 1011.4 |
| 20260506224750 | 49 | 270 | 3.0 | 8.0 | 0.00 | 0.08 | 0.00 | 86 | 1011.4 |
| 20260506224253 | 49 | 261 | 4.0 | 8.0 | 0.00 | 0.08 | 0.00 | 86 | 1011.4 |
| 20260506223745 | 49 | 284 | 4.0 | 10.0 | 0.00 | 0.08 | 0.00 | 86 | 1011.3 |
| 20260506223244 | 49 | 236 | 3.0 | 10.0 | 0.00 | 0.08 | 0.00 | 86 | 1011.3 |
| 20260506222747 | 49 | 289 | 4.0 | 8.0 | 0.00 | 0.08 | 0.00 | 86 | 1011.3 |
| 20260506222242 | 49 | 234 | 3.0 | 8.0 | 0.00 | 0.08 | 0.00 | 86 | 1011.1 |
| 20260506221740 | 49 | 273 | 3.0 | 8.0 | 0.00 | 0.08 | 0.00 | 86 | 1011.2 |
| 20260506221236 | 49 | 277 | 1.0 | 8.0 | 0.00 | 0.08 | 0.00 | 87 | 1011.2 |
| 20260506220731 | 49 | 246 | 3.0 | 9.0 | 0.00 | 0.08 | 0.00 | 86 | 1011.1 |
| 20260506220231 | 49 | 225 | 2.0 | 9.0 | 0.00 | 0.08 | 0.00 | 86 | 1011.1 |
| 20260506215731 | 49 | 219 | 2.0 | 10.0 | 0.00 | 0.08 | 0.08 | 87 | 1011.0 |
| 20260506215231 | 49 | 271 | 5.0 | 10.0 | 0.00 | 0.08 | 0.08 | 87 | 1011.0 |
| 20260506214731 | 49 | 236 | 4.0 | 9.0 | 0.00 | 0.08 | 0.08 | 87 | 1010.9 |
| 20260506214231 | 49 | 268 | 2.0 | 7.0 | 0.00 | 0.08 | 0.08 | 88 | 1010.9 |
| 20260506213731 | 49 | 273 | 2.0 | 7.0 | 0.00 | 0.08 | 0.08 | 87 | 1010.9 |
| 20260506213230 | 48 | 276 | 2.0 | 8.0 | 0.00 | 0.08 | 0.08 | 87 | 1010.9 |
| 20260506212732 | 49 | 281 | 3.0 | 8.0 | 0.00 | 0.08 | 0.08 | 87 | 1010.9 |
| 20260506212229 | 49 | 279 | 2.0 | 6.0 | 0.00 | 0.08 | 0.08 | 87 | 1010.7 |
| 20260506211729 | 48 | 279 | 2.0 | 10.0 | 0.00 | 0.08 | 0.08 | 88 | 1010.9 |
| 20260506210729 | 49 | 264 | 4.0 | 9.0 | 0.00 | 0.08 | 0.08 | 87 | 1010.9 |
| 20260506205729 | 49 | 272 | 3.0 | 8.0 | 0.00 | 0.08 | 0.08 | 87 | 1010.7 |
| 20260506205229 | 49 | 288 | 2.0 | 7.0 | 0.00 | 0.08 | 0.08 | 87 | 1010.6 |
| 20260506204728 | 49 | 300 | 3.0 | 7.0 | 0.00 | 0.08 | 0.08 | 88 | 1010.7 |
| 20260506203730 | 49 | 242 | 4.0 | 8.0 | 0.00 | 0.08 | 0.08 | 88 | 1010.5 |
| 20260506203230 | 49 | 288 | 2.0 | 7.0 | 0.00 | 0.08 | 0.08 | 88 | 1010.4 |
| 20260506202734 | 49 | 248 | 3.0 | 8.0 | 0.00 | 0.08 | 0.08 | 88 | 1010.4 |
| 20260506202229 | 49 | 243 | 3.0 | 8.0 | 0.00 | 0.08 | 0.08 | 88 | 1010.4 |
| 20260506201229 | 49 | 283 | 4.0 | 9.0 | 0.00 | 0.08 | 0.08 | 88 | 1010.4 |
| 20260506200231 | 49 | 281 | 4.0 | 8.0 | 0.00 | 0.08 | 0.08 | 88 | 1010.4 |
| 20260506195729 | 49 | 264 | 2.0 | 7.0 | 0.01 | 0.08 | 0.08 | 88 | 1010.3 |
| 20260506194728 | 49 | 273 | 2.0 | 7.0 | 0.02 | 0.08 | 0.08 | 88 | 1010.3 |
| 20260506194228 | 49 | 279 | 2.0 | 9.0 | 0.02 | 0.08 | 0.08 | 88 | 1010.3 |
| 20260506193729 | 49 | 234 | 3.0 | 9.0 | 0.02 | 0.08 | 0.08 | 89 | 1010.1 |
| 20260506193230 | 49 | 251 | 4.0 | 7.0 | 0.02 | 0.08 | 0.08 | 89 | 1010.1 |
| 20260506192729 | 50 | 270 | 2.0 | 8.0 | 0.02 | 0.08 | 0.08 | 89 | 1010.0 |
| 20260506191729 | 50 | 291 | 2.0 | 8.0 | 0.02 | 0.08 | 0.08 | 89 | 1009.9 |
| 20260506191229 | 50 | 263 | 2.0 | 7.0 | 0.02 | 0.08 | 0.08 | 89 | 1009.9 |
| 20260506190729 | 50 | 281 | 1.0 | 7.0 | 0.02 | 0.08 | 0.08 | 89 | 1009.8 |
| 20260506190229 | 50 | 284 | 3.0 | 11.0 | 0.02 | 0.08 | 0.08 | 89 | 1009.7 |
| 20260506185731 | 50 | 0 | 3.0 | 11.0 | 0.02 | 0.06 | 0.07 | 88 | 1009.7 |
| 20260506185229 | 50 | 279 | 3.0 | 8.0 | 0.02 | 0.06 | 0.07 | 88 | 1009.6 |
| 20260506184729 | 50 | 301 | 2.0 | 8.0 | 0.01 | 0.06 | 0.06 | 87 | 1009.5 |
| 20260506184228 | 51 | 268 | 2.0 | 8.0 | 0.00 | 0.06 | 0.06 | 86 | 1009.7 |
| 20260506183730 | 51 | 278 | 3.0 | 8.0 | 0.00 | 0.06 | 0.06 | 85 | 1009.5 |
| 20260506183243 | 51 | 263 | 2.0 | 9.0 | 0.00 | 0.06 | 0.06 | 84 | 1009.5 |
| 20260506182742 | 51 | 264 | 2.0 | 9.0 | 0.00 | 0.06 | 0.06 | 84 | 1009.5 |
| 20260506182229 | 51 | 277 | 2.0 | 7.0 | 0.00 | 0.06 | 0.06 | 83 | 1009.5 |
| 20260506181728 | 51 | 264 | 2.0 | 7.0 | 0.00 | 0.06 | 0.06 | 83 | 1009.5 |
| 20260506180730 | 51 | 281 | 4.0 | 9.0 | 0.00 | 0.06 | 0.06 | 83 | 1009.5 |
| 20260506175722 | 52 | 266 | 3.0 | 10.0 | 0.00 | 0.06 | 0.06 | 82 | 1009.5 |
| 20260506174718 | 52 | 267 | 4.0 | 15.0 | 0.00 | 0.06 | 0.06 | 80 | 1009.2 |
| 20260506174215 | 52 | 260 | 5.0 | 15.0 | 0.00 | 0.06 | 0.06 | 80 | 1009.3 |
| 20260506173715 | 53 | 285 | 4.0 | 16.0 | 0.00 | 0.06 | 0.06 | 79 | 1009.0 |
| 20260506173216 | 53 | 263 | 8.0 | 17.0 | 0.00 | 0.06 | 0.06 | 79 | 1008.7 |
| 20260506172716 | 53 | 285 | 8.0 | 17.0 | 0.00 | 0.06 | 0.06 | 78 | 1008.6 |
| 20260506172216 | 54 | 261 | 4.0 | 13.0 | 0.00 | 0.06 | 0.06 | 78 | 1008.3 |
| 20260506171710 | 54 | 265 | 5.0 | 14.0 | 0.00 | 0.06 | 0.06 | 78 | 1008.1 |
| 20260506171208 | 54 | 231 | 5.0 | 14.0 | 0.00 | 0.06 | 0.06 | 79 | 1008.0 |
| 20260506170704 | 54 | 309 | 6.0 | 14.0 | 0.00 | 0.06 | 0.06 | 81 | 1007.9 |
| 20260506170208 | 53 | 351 | 5.0 | 13.0 | 0.00 | 0.06 | 0.06 | 83 | 1007.9 |
| 20260506165709 | 53 | 286 | 3.0 | 15.0 | 0.00 | 0.06 | 0.06 | 84 | 1007.9 |
| 20260506165331 | 53 | 264 | 6.0 | 15.0 | 0.00 | 0.06 | 0.06 | 85 | 1008.0 |
| 20260506164832 | 53 | 275 | 6.0 | 15.0 | 0.00 | 0.06 | 0.06 | 85 | 1007.9 |
| 20260506164330 | 53 | 269 | 4.0 | 12.0 | 0.00 | 0.06 | 0.06 | 85 | 1007.8 |
| 20260506163329 | 53 | 248 | 7.0 | 16.0 | 0.00 | 0.06 | 0.06 | 84 | 1007.7 |
| 20260506162831 | 54 | 273 | 6.0 | 18.0 | 0.00 | 0.06 | 0.06 | 82 | 1007.7 |
| 20260506162330 | 55 | 280 | 8.0 | 22.0 | 0.00 | 0.06 | 0.06 | 79 | 1007.6 |
| 20260506161832 | 57 | 288 | 8.0 | 22.0 | 0.00 | 0.06 | 0.06 | 75 | 1007.6 |
| 20260506161330 | 59 | 244 | 4.0 | 9.0 | 0.00 | 0.06 | 0.06 | 79 | 1007.2 |
| 20260506160831 | 59 | 268 | 4.0 | 8.0 | 0.00 | 0.06 | 0.06 | 79 | 1006.7 |
| 20260506160330 | 60 | 265 | 3.0 | 7.0 | 0.00 | 0.06 | 0.06 | 79 | 1006.7 |
| 20260506155331 | 60 | 227 | 3.0 | 7.0 | 0.00 | 0.06 | 0.06 | 76 | 1006.6 |
| 20260506154832 | 61 | 288 | 2.0 | 6.0 | 0.00 | 0.06 | 0.06 | 75 | 1006.5 |
| 20260506154331 | 61 | 253 | 3.0 | 6.0 | 0.00 | 0.06 | 0.06 | 72 | 1006.3 |
| 20260506153329 | 62 | 237 | 2.0 | 5.0 | 0.01 | 0.06 | 0.06 | 71 | 1006.1 |
| 20260506152830 | 61 | 239 | 1.0 | 7.0 | 0.01 | 0.06 | 0.06 | 72 | 1006.0 |
| 20260506152329 | 61 | 241 | 2.0 | 7.0 | 0.01 | 0.06 | 0.06 | 72 | 1005.9 |
| 20260506151831 | 62 | 92 | 2.0 | 6.0 | 0.01 | 0.06 | 0.06 | 75 | 1006.0 |
| 20260506151329 | 62 | 195 | 1.0 | 5.0 | 0.01 | 0.06 | 0.06 | 76 | 1006.1 |
| 20260506150829 | 62 | 80 | 1.0 | 5.0 | 0.02 | 0.06 | 0.06 | 78 | 1006.0 |
| 20260506150329 | 61 | 221 | 2.0 | 5.0 | 0.02 | 0.06 | 0.06 | 79 | 1006.2 |
| 20260506145828 | 60 | 215 | 1.0 | 4.0 | 0.03 | 0.03 | 0.06 | 81 | 1006.2 |
| 20260506145328 | 59 | 186 | 1.0 | 3.0 | 0.04 | 0.03 | 0.06 | 86 | 1006.2 |
| 20260506144830 | 57 | 146 | 0.0 | 3.0 | 0.05 | 0.03 | 0.06 | 89 | 1006.4 |
| 20260506144330 | 57 | 122 | 1.0 | 3.0 | 0.06 | 0.03 | 0.06 | 89 | 1006.2 |
| 20260506143828 | 56 | 119 | 2.0 | 3.0 | 0.06 | 0.03 | 0.06 | 91 | 1006.1 |
| 20260506142829 | 56 | 125 | 1.0 | 2.0 | 0.05 | 0.03 | 0.05 | 93 | 1006.4 |
| 20260506142328 | 55 | 89 | 1.0 | 3.0 | 0.05 | 0.03 | 0.05 | 92 | 1006.7 |
| 20260506141829 | 55 | 114 | 1.0 | 7.0 | 0.05 | 0.03 | 0.05 | 91 | 1006.6 |
| 20260506141329 | 55 | 126 | 2.0 | 7.0 | 0.05 | 0.03 | 0.05 | 90 | 1006.8 |
| 20260506140828 | 56 | 300 | 0.0 | 2.0 | 0.04 | 0.03 | 0.04 | 89 | 1007.0 |
| 20260506135828 | 57 | 278 | 0.0 | 6.0 | 0.02 | 0.00 | 0.02 | 86 | 1007.1 |
| 20260506135329 | 58 | 265 | 2.0 | 4.0 | 0.02 | 0.00 | 0.02 | 82 | 1007.0 |
| 20260506134829 | 59 | 288 | 2.0 | 5.0 | 0.01 | 0.00 | 0.01 | 80 | 1006.8 |
| 20260506134330 | 60 | 327 | 1.0 | 6.0 | 0.00 | 0.00 | 0.00 | 76 | 1006.5 |
| 20260506133828 | 61 | 277 | 2.0 | 6.0 | 0.00 | 0.00 | 0.00 | 69 | 1006.4 |
| 20260506133331 | 62 | 325 | 1.0 | 3.0 | 0.00 | 0.00 | 0.00 | 68 | 1006.2 |
| 20260506132829 | 62 | 339 | 1.0 | 3.0 | 0.00 | 0.00 | 0.00 | 67 | 1005.9 |
| 20260506132331 | 61 | 352 | 0.0 | 3.0 | 0.00 | 0.00 | 0.00 | 69 | 1005.8 |
| 20260506131831 | 62 | 28 | 0.0 | 3.0 | 0.00 | 0.00 | 0.00 | 69 | 1005.5 |
| 20260506131332 | 62 | 19 | 1.0 | 2.0 | 0.00 | 0.00 | 0.00 | 69 | 1005.6 |
| 20260506130831 | 63 | 350 | 0.0 | 2.0 | 0.00 | 0.00 | 0.00 | 65 | 1005.7 |
| 20260506130343 | 62 | 5 | 0.0 | 1.0 | 0.00 | 0.00 | 0.00 | 67 | 1005.8 |
| 20260506125828 | 61 | 5 | 0.0 | 1.0 | 0.00 | 0.00 | 0.00 | 67 | 1005.7 |
| 20260506124829 | 62 | 5 | 1.0 | 4.0 | 0.00 | 0.00 | 0.00 | 67 | 1005.9 |
| 20260506124329 | 62 | 32 | 0.0 | 3.0 | 0.00 | 0.00 | 0.00 | 68 | 1005.9 |
| 20260506123829 | 62 | 43 | 1.0 | 3.0 | 0.00 | 0.00 | 0.00 | 69 | 1005.9 |
| 20260506123329 | 62 | 37 | 0.0 | 3.0 | 0.00 | 0.00 | 0.00 | 70 | 1006.1 |
| 20260506122828 | 62 | 38 | 1.0 | 3.0 | 0.00 | 0.00 | 0.00 | 68 | 1006.0 |
| 20260506122328 | 62 | 106 | 2.0 | 4.0 | 0.00 | 0.00 | 0.00 | 68 | 1006.0 |
| 20260506121831 | 62 | 103 | 2.0 | 4.0 | 0.00 | 0.00 | 0.00 | 69 | 1006.0 |
| 20260506120830 | 62 | 115 | 2.0 | 6.0 | 0.00 | 0.00 | 0.00 | 68 | 1006.1 |
| 20260506115829 | 62 | 95 | 0.0 | 3.0 | 0.00 | 0.00 | 0.00 | 67 | 1006.4 |
| 20260506114832 | 62 | 88 | 0.0 | 3.0 | 0.00 | 0.00 | 0.00 | 69 | 1006.5 |
| 20260506114329 | 62 | 86 | 2.0 | 3.0 | 0.00 | 0.00 | 0.00 | 68 | 1006.4 |
| 20260506113829 | 62 | 28 | 0.0 | 4.0 | 0.00 | 0.00 | 0.00 | 69 | 1006.5 |
| 20260506113329 | 62 | 27 | 0.0 | 4.0 | 0.00 | 0.00 | 0.00 | 71 | 1006.5 |
| 20260506112328 | 63 | 28 | 1.0 | 4.0 | 0.00 | 0.00 | 0.00 | 64 | 1006.8 |
| 20260506111829 | 65 | 94 | 1.0 | 4.0 | 0.00 | 0.00 | 0.00 | 67 | 1006.7 |
| 20260506111329 | 65 | 103 | 2.0 | 6.0 | 0.00 | 0.00 | 0.00 | 65 | 1006.7 |
| 20260506110329 | 64 | 99 | 2.0 | 6.0 | 0.00 | 0.00 | 0.00 | 66 | 1007.0 |
| 20260506105328 | 62 | 104 | 1.0 | 3.0 | 0.00 | 0.00 | 0.00 | 72 | 1007.1 |
| 20260506104830 | 61 | 128 | 0.0 | 3.0 | 0.00 | 0.00 | 0.00 | 67 | 1007.2 |
| 20260506104331 | 61 | 95 | 1.0 | 3.0 | 0.00 | 0.00 | 0.00 | 71 | 1007.2 |
| 20260506103829 | 60 | 31 | 0.0 | 3.0 | 0.00 | 0.00 | 0.00 | 71 | 1007.1 |
| 20260506103329 | 60 | 32 | 0.0 | 3.0 | 0.00 | 0.00 | 0.00 | 70 | 1007.0 |
| 20260506102828 | 60 | 22 | 2.0 | 3.0 | 0.00 | 0.00 | 0.00 | 72 | 1007.1 |
| 20260506102329 | 60 | 109 | 0.0 | 6.0 | 0.00 | 0.00 | 0.00 | 72 | 1007.3 |
| 20260506101329 | 61 | 110 | 1.0 | 3.0 | 0.00 | 0.00 | 0.00 | 73 | 1007.4 |
| 20260506095828 | 62 | 30 | 0.0 | 3.0 | 0.00 | 0.00 | 0.00 | 71 | 1007.4 |
| 20260506095329 | 61 | 17 | 0.0 | 5.0 | 0.00 | 0.00 | 0.00 | 69 | 1007.5 |
| 20260506094831 | 61 | 5 | 1.0 | 5.0 | 0.00 | 0.00 | 0.00 | 69 | 1007.6 |
| 20260506094330 | 60 | 320 | 0.0 | 3.0 | 0.00 | 0.00 | 0.00 | 71 | 1007.6 |
| 20260506093830 | 60 | 319 | 1.0 | 3.0 | 0.00 | 0.00 | 0.00 | 71 | 1007.7 |
| 20260506093331 | 59 | 290 | 0.0 | 3.0 | 0.00 | 0.00 | 0.00 | 73 | 1007.7 |
| 20260506092829 | 59 | 5 | 1.0 | 3.0 | 0.00 | 0.00 | 0.00 | 74 | 1007.4 |
| 20260506092332 | 59 | 264 | 0.0 | 3.0 | 0.00 | 0.00 | 0.00 | 73 | 1007.3 |
| 20260506091831 | 59 | 329 | 0.0 | 3.0 | 0.00 | 0.00 | 0.00 | 77 | 1007.6 |
| 20260506091326 | 59 | 313 | 0.0 | 2.0 | 0.00 | 0.00 | 0.00 | 75 | 1007.4 |
| 20260506085819 | 59 | 321 | 0.0 | 1.0 | 0.00 | 0.00 | 0.00 | 73 | 1007.7 |
| 20260506085318 | 59 | 332 | 0.0 | 3.0 | 0.00 | 0.00 | 0.00 | 72 | 1007.7 |
| 20260506084817 | 59 | 348 | 1.0 | 3.0 | 0.00 | 0.00 | 0.00 | 72 | 1007.6 |
| 20260506084316 | 59 | 297 | 1.0 | 3.0 | 0.00 | 0.00 | 0.00 | 71 | 1007.7 |
| 20260506083813 | 59 | 321 | 1.0 | 3.0 | 0.00 | 0.00 | 0.00 | 72 | 1007.7 |
| 20260506082811 | 59 | 318 | 1.0 | 3.0 | 0.00 | 0.00 | 0.00 | 71 | 1007.6 |
| 20260506082310 | 59 | 9 | 1.0 | 3.0 | 0.00 | 0.00 | 0.00 | 73 | 1007.5 |
| 20260506081308 | 58 | 25 | 0.0 | 3.0 | 0.00 | 0.00 | 0.00 | 74 | 1007.6 |
| 20260506080310 | 58 | 44 | 0.0 | 1.0 | 0.00 | 0.00 | 0.00 | 75 | 1007.5 |
| 20260506073301 | 57 | 306 | 0.0 | 2.0 | 0.00 | 0.00 | 0.00 | 75 | 1007.8 |
| 20260506072800 | 57 | 294 | 1.0 | 2.0 | 0.00 | 0.00 | 0.00 | 75 | 1008.0 |
| 20260506072300 | 57 | 98 | 0.0 | 1.0 | 0.00 | 0.00 | 0.00 | 76 | 1008.0 |
| 20260506071802 | 56 | 98 | 0.0 | 0.0 | 0.00 | 0.00 | 0.00 | 77 | 1008.1 |
| 20260506071303 | 56 | 98 | 0.0 | 0.0 | 0.00 | 0.00 | 0.00 | 78 | 1008.2 |
| 20260506070757 | 56 | 98 | 0.0 | 0.0 | 0.00 | 0.00 | 0.00 | 79 | 1008.2 |
| 20260506070258 | 56 | 98 | 0.0 | 0.0 | 0.00 | 0.00 | 0.00 | 80 | 1008.2 |
| 20260506062248 | 54 | 99 | 2.0 | 3.0 | 0.00 | 0.00 | 0.00 | 82 | 1008.2 |
| 20260506061242 | 54 | 87 | 1.0 | 3.0 | 0.00 | 0.00 | 0.00 | 84 | 1008.2 |
| 20260506060741 | 53 | 123 | 0.0 | 2.0 | 0.00 | 0.00 | 0.00 | 86 | 1008.2 |
| 20260506060241 | 53 | 122 | 1.0 | 2.0 | 0.00 | 0.00 | 0.00 | 86 | 1008.2 |
| 20260506050722 | 47 | 68 | 0.0 | 0.0 | 0.00 | 0.00 | 0.00 | 92 | 1008.3 |
| 20260506050223 | 47 | 68 | 0.0 | 0.0 | 0.00 | 0.00 | 0.00 | 92 | 1008.3 |